Location: Bobingen
(48.2709°N, 10.8339°E)
Time: 19:18:49
(UTC+00:00)

Daily predictions for brighter satellites

Satellite Brightness Start Highest point End
(mag) Time Altitude Azimuth Time Altitude Azimuth Time Altitude Azimuth
Cosmos 1908 Rocket 3.9 16:02:46 10° SSW 16:07:11 73° W 16:11:38 10° N
MOS 1 Rocket 4.3 16:03:56 10° ESE 16:07:16 22° ENE 16:10:44 10° NNE
Cosmos 1441 Rocket 3.4 16:03:56 10° NNW 16:07:16 64° W 16:10:36 10° S
SL-08 R/B 4.4 16:04:01 10° S 16:10:04 75° E 16:16:09 10° NNE
USA 215 3.3 16:03:54 10° ESE 16:10:26 77° NNE 16:17:00 10° NW
Cosmos 1975 Rocket 3.2 16:06:17 10° N 16:10:32 50° ENE 16:14:46 10° SSE
ARIANE 5 R/B 2.8 16:06:12 10° SE 16:10:54 44° ENE 16:15:38 10° N
ATLAS 5 CENTAUR R/B 2.4 16:08:59 10° NW 16:13:19 64° SW 16:18:42 10° SSE
Cosmos 1802 Rocket 4.4 16:11:29 10° SSW 16:17:54 73° W 16:24:20 10° N
Cosmos 2344 4.3 16:11:21 10° NW 16:18:15 37° NNE 16:26:45 10° E
Iridium 4 Rocket 4.0 16:14:33 10° SSW 16:19:29 59° W 16:24:03 10° N
SAR-Lupe-4 3.8 16:16:30 10° SE 16:19:56 46° ENE 16:23:24 10° N
ISS -3.5 16:24:52 10° SW 16:28:09 59° SSE 16:30:57 14° ENE
CZ-2D R/B 3.0 16:26:11 10° SSE 16:29:12 46° ENE 16:32:15 10° N
Cosmos 1833 Rocket 3.7 16:25:01 10° NW 16:30:30 51° WSW 16:35:55 10° S
COSMOS 2406 4.1 16:25:37 10° NNW 16:30:30 28° NE 16:35:22 10° ESE
Cosmos 407 Rocket 3.6 16:25:32 10° S 16:30:33 54° ESE 16:35:34 10° NNE
Cosmos 1484 Rocket 4.1 16:28:06 10° S 16:31:25 40° W 16:34:47 10° NNW
Cosmos 2016 Rocket 4.5 16:25:32 10° SSW 16:31:49 68° W 16:38:12 10° N
Cosmos 1812 3.1 16:30:02 10° SSE 16:32:27 24° E 16:34:34 12° NE
IRS-P3 4.3 16:29:13 10° SE 16:34:21 52° ENE 16:39:31 10° N
TIMED 4.5 16:30:30 10° SSW 16:34:45 88° WNW 16:39:03 10° NNE
Tsikada Rocket 4.3 16:29:17 10° NNW 16:35:43 77° W 16:42:02 10° S
ERS-1 4.5 16:34:27 10° SSE 16:39:32 65° ENE 16:44:36 10° N
SMAP 3.1 16:36:51 10° SSE 16:41:31 86° W 16:46:12 10° NNW
Cosmos 44 Rocket 3.5 16:38:56 10° SSW 16:43:33 51° ESE 16:47:38 14° NE
Cosmos 540 Rocket 3.4 16:39:56 10° NNW 16:45:06 79° ENE 16:50:12 10° SSE
SJ 16-02 2.4 16:42:11 10° SSE 16:45:43 25° E 16:47:54 17° ENE
SPOT 1/Viking Rocket 4.0 16:41:29 10° SE 16:46:16 40° ENE 16:51:06 10° N
Cosmos 1869 2.9 16:43:55 10° S 16:47:24 70° E 16:50:55 10° NNE
YAOGAN 1 3.4 16:44:36 10° ESE 16:48:10 26° ENE 16:51:44 10° N
SL-16 R/B 3.4 16:46:38 10° N 16:52:42 53° WNW 16:58:42 10° SW
Cosmos 1763 Rocket 3.7 16:48:18 10° NNW 16:53:32 77° WSW 16:58:38 10° SSE
Landsat 7 3.7 16:49:01 10° SSE 16:53:40 90° WSW 16:58:21 10° NNW
Spot 4 Rocket 4.4 16:52:29 10° SE 16:57:14 41° ENE 17:02:00 10° N
Nadezhda 4 Rocket 4.2 16:52:46 10° N 16:58:52 49° ENE 17:04:51 10° SSE
RESURS DK-1 2.7 16:55:18 10° NW 16:59:17 64° WSW 17:03:13 10° SSE
Timation 1 Rocket 4.5 16:53:19 10° NNW 16:59:18 80° WSW 17:05:15 10° SSE
Cosmos 1140 Rocket 4.4 16:54:42 10° SW 16:59:43 49° WNW 17:04:43 10° NNE
Aureole 3 Rocket 2.2 16:57:27 10° S 17:00:26 60° E 17:03:40 10° NNE
CZ-4C R/B 3.8 16:58:17 10° WNW 17:02:16 22° NNW 17:06:52 11° NE
Resurs 1-3 4.1 16:58:34 10° SE 17:02:25 34° ENE 17:06:19 10° N
CZ-4 R/B 4.3 17:01:40 10° SSE 17:05:33 57° ENE 17:09:28 10° N
SJ-6F 4.2 17:01:42 10° SSE 17:05:36 90° E 17:09:33 10° NNW
UNK 4.4 17:01:16 10° N 17:05:48 56° WNW 17:10:18 10° SSW
Cosmos 304 Rocket 4.3 17:04:20 10° SSE 17:08:36 35° ESE 17:10:27 25° ENE
Cosmos 1400 Rocket 3.1 17:06:18 10° SSE 17:09:51 39° E 17:11:07 29° NE
SJ-12 4.4 17:06:23 10° S 17:10:06 56° W 17:13:52 10° NNW
Cosmos 371 Rocket 3.9 17:05:55 10° SSE 17:10:15 35° ESE 17:12:04 26° ENE
Cosmos 1536 Rocket 3.5 17:08:03 10° N 17:12:27 58° ENE 17:16:47 10° SSE
Helios 1A Rocket 3.4 17:16:47 29° SE 17:16:47 29° SE 17:19:07 10° SSE
Okean 2 Rocket 3.2 17:13:00 10° SSE 17:17:12 46° E 17:20:03 19° NNE
Cosmos 489 Rocket 4.4 17:13:08 10° NNW 17:19:23 68° ENE 17:25:34 10° SSE
NOAA 6 4.2 17:20:29 10° SE 17:25:24 47° ENE 17:30:19 10° N
Geosat 4.4 17:25:22 33° E 17:26:54 42° NE 17:31:36 10° NNW
SL-12 R/B(2) 4.4 17:18:52 10° SW 17:26:56 81° NW 17:35:47 14° NE
Resurs 01 Rocket 3.3 17:30:11 18° NNE 17:30:11 18° NNE 17:31:41 10° N
COSMO-SKYMED 1 2.5 17:26:49 38° NE 17:27:57 50° E 17:31:57 10° S
Cosmos 1943 Rocket 2.5 17:24:40 10° SW 17:30:14 64° WNW 17:35:17 13° NNE
Cosmos 2251 Rocket 3.6 17:28:48 10° SSW 17:34:06 82° WNW 17:38:36 15° NNE
Cosmos 841 Rocket 3.4 17:29:05 10° NNW 17:34:21 68° ENE 17:38:54 14° SSE
Cosmos 2058 3.4 17:30:27 10° NNW 17:34:21 58° W 17:38:15 10° S
SJ-7 4.0 17:31:57 10° SSE 17:35:38 81° ENE 17:39:20 10° NNW
BREEZE-M DEB (TANK) 2.5 17:35:24 10° W 17:38:10 87° N 17:39:49 41° ENE
Cosmos 2082 Rocket 2.6 17:33:57 10° NNW 17:39:31 64° WSW 17:45:03 10° SSE
ATLAS 2AS CENTAUR R/B 3.1 17:34:02 10° NW 17:40:29 42° NE 17:42:14 36° ENE
Cosmos 1346 Rocket 4.5 17:37:25 10° N 17:38:39 19° N 17:38:39 19° N
IRAS Rocket 4.2 17:37:04 10° SSE 17:42:39 87° WSW 17:48:12 10° NNW
Cosmos 2278 Rocket 2.8 17:38:15 10° SW 17:43:47 54° WNW 17:48:32 14° NNE
MOS 1 Rocket 4.2 17:40:51 10° S 17:45:00 46° W 17:49:23 10° NNW
Cosmos 1464 Rocket 4.1 17:43:32 10° SSW 17:49:50 78° W 17:56:06 10° N
Cosmos 1634 Rocket 4.2 17:44:30 10° SSE 17:57:50 - NNE 17:50:01 43° E
CZ-2D R/B 4.1 17:46:39 10° S 17:50:43 56° W 17:54:53 10° NNW
Meteor 2-1 Rocket 4.2 17:45:41 10° S 17:51:31 66° E 17:57:26 10° NNE
Cosmos 2369 Rocket 3.8 17:48:20 10° SSE 17:50:08 19° SSE 17:50:08 19° SSE
USA 215 4.4 17:47:44 10° SSE 17:53:47 40° SW 17:59:54 10° WNW
PSLV R/B 3.6 17:52:29 10° S 17:56:30 68° WSW 18:00:31 10° NNW
Cosmos 1862 4.4 17:53:18 10° NNW 17:56:44 40° W 18:00:09 10° SSW
Cosmos 2151 Rocket 4.4 17:56:08 10° SSW 18:00:29 51° WNW 18:04:55 10° N
Cosmos 2034 Rocket 3.9 17:57:32 10° S 18:03:45 89° W 18:10:05 10° N
ISS -2.1 18:01:44 10° W 18:03:52 33° WNW 18:03:52 33° WNW
Cosmos 676 Rocket 4.0 17:59:41 10° SSW 18:05:00 85° WNW 18:06:42 45° NNE
Okean 1 Rocket 3.3 18:02:46 10° SSW 18:07:08 66° W 18:08:25 43° NNW
Cosmos 1656 Rocket 3.5 18:02:10 10° SSW 18:07:41 72° ESE 18:08:00 70° E
USA 281 3.2 18:11:28 54° ENE 18:11:49 55° NE 18:18:13 10° NNW
Sich 1 Rocket 4.1 18:08:26 10° SSW 18:12:54 58° WNW 18:14:56 31° N
Cosmos 1932 4.4 18:08:50 10° SSW 18:15:11 80° SE 18:16:22 62° NE
COSMOS 2406 3.6 18:09:35 10° NNW 18:15:11 62° WSW 18:19:01 21° S
Cosmos 1092 Rocket 3.8 18:10:38 10° N 18:16:56 88° E 18:23:07 10° S
BlueWalker 3 4.3 18:14:52 10° SSW 18:15:40 15° SSW 18:15:40 15° SSW
Cosmos 2026 Rocket 4.0 18:15:48 10° NNW 18:21:54 77° W 18:28:02 10° S
SJ 16-02 2.6 18:19:39 10° SW 18:23:39 37° WNW 18:24:29 34° NW
YAOGAN 1 4.1 18:20:00 10° SSW 18:23:53 35° W 18:27:50 10° NNW
Cosmos 2344 3.9 18:25:34 10° NW 18:33:34 83° SW 18:38:34 35° SSE
Meteor 2-3 Rocket 4.5 18:32:18 10° NNW 18:37:47 50° W 18:43:10 10° SSW
CZ-4C R/B 4.2 18:48:16 10° NW 18:51:49 21° N 18:51:49 21° N
Resurs 01 Rocket 4.3 19:07:37 13° NW 19:07:37 13° NW 19:08:14 10° NNW
ATLAS 2AS CENTAUR R/B 3.6 19:25:02 10° NW 19:29:41 43° WNW 19:29:41 43° WNW
